Terug naar catalogus

STARLINK-2178

ActiefCommunicatieVLEO
NORAD 47760·PAYLOAD·🇺🇸 United States

Gelanceerd Mar 4, 2021 vanaf Cape Canaveral Space Force Station

Loading…

Volgende Passages (komende 24 uur)

TLE

VersSource: CelesTrak SupGP

Epoch: Sep 14, 2026, 20:48 UTC

1 47760C 21017AQ  26257.86715278  .00053700  00000+0  17270-2 0  2571
2 47760  53.1597  56.3190 0001208  82.3553  80.9444 15.31672166    15

Volg STARLINK-2178 in realtime met AllMySat

Download on the App Store